STARLINK-32435, 61259

Orbit data source: Space-Track

STARLINK-32435, 61259 is a payload satellite owned by SpaceX/Seattle (US) in LEO that was launched on Wed, 25 Sep 2024 UTC via an FALCON 9 launch vehicle from the Air Force Western Test Range (AFWTR). Payload-class satellites include a variety of spacecraft equipped with specific instruments for various scientific and technological missions. These include communications satellites like Starlink; space stations such as the ISS; scientific satellites like the Hubble; Earth observation satellites from companies like Planet Labs, Umbra, and HawkEye 360; GPS; miniature CubeSats for education and research; and military/defense satellites.

Loading next visibility...
Identifier
61259, 2024-175S
Orbit
LEO
Country
Flag of USUS
Related business
Manufacturer
SpaceX/Seattle
Mission
Operational Commercial Communications
Bus & Motor
STARLINK V2M, Unknown motor
Mass
730 kg wet, ~700 kg dry
Launch date (UTC)
2024-09-25 (1 year ago)
Launch vehicle
FALCON 9
Launch site
Air Force Western Test Range (AFWTR)
Object type
Payload
Rocket body
Debris
Shape & HBR
Box + 2 Pan, 17.7 m
Radar Cross Section
33.884 m², Large (>1 m²)

Expand to show TLE details & history
Last TLE update: 19 hours ago

TLE from 19 hours ago
0 STARLINK-32435
1 61259U 24175S   25310.65076643  .00001270  00000-0  55018-4 0  9993
2 61259  53.1601  45.6984 0001095  85.2485 274.8641 15.30192703 62612
Epoch: 2025-11-06T15:37Z
TLE epoch observation values (Epoch: 2025-11-06T15:37:06.219Z)
Latitude
-0.00001°
Longitude
125.31645°
Altitude
476.073 km
Speed
7.629 km/s
True Right ascension
03h 02m 47s
True Declination
0° 00' 00"
Sunlit
Object was in full shadow at epoch
Visualization orbit readout
Latitude
Unknown
Longitude
Unknown
Altitude
Unknown
Speed
Unknown
Apparent Right ascension
Unknown
Apparent Declination
Unknown
Sunlit
N/A
Visualization observer readout
Local Sidereal Time
07:10:06
Azimuth
Unknown
Elevation
Unknown
Doppler factor
Unknown
Orbital elements
Apogee altitude
476.244 km
Perigee altitude
474.743 km
Semi-major axis
6,853.63 km
Eccentricity
0.00011
Inclination
53.1601°
RAAN
45.6984°
Arg. of periapsis
85.2485°
True anomaly
274.8516°
Mean anomaly
274.8641°
Eccentric anomaly
274.85785°
Mean motion
3.82527 °/min
Orbital period
94.11 mins
BSTAR
0.000055018
Loading maneuver chart data...
Computing Atmospheric mass density...
Loading historical data...
Loading historical data...
Loading historical data...
Loading historical data...
Loading historical data...
Loading historical data...
Loading historical data...

Documentation

Showing up to 5 results
|